Regional Weather Roundup
Issued by NWS

Home | Current Version | Previous Version | Text Only | Print | Product List | Glossary On
Versions: 1 2 3 4 5 6 7 8 9 10 11 12 13 14 15 16 17 18 19 20 21 22 23 24 25 26 27 28 29 30 31 32 33 34 35 36 37 38 39 40 41 42 43 44 45 46 47 48 49 50
000
ASUS42 KKEY 211910
RWRKEY

FLORIDA REGIONAL WEATHER ROUNDUP FOR THE FLORIDA KEYS
NATIONAL WEATHER SERVICE KEY WEST FLORIDA
300 PM EDT THU AUG 21 2014

...SOUTH FLORIDA AND THE KEYS...

CITY           SKY/WX    TMP DP  RH WIND       PRES   REMARKS
FORT MYERS     MOSUNNY   95  71  45 NE6       30.06F HX 102
SW REGIONAL AP SUNNY     94  69  44 E9        30.07F HX  99
NAPLES         MOSUNNY   91  76  61 W12       30.07F HX 103
MIAMI          PTSUNNY   91  75  59 SE10      30.08F HX 101
WEST KENDALL   PTSUNNY   91  75  59 SE12      30.08F HX 101
HOMESTEAD      PTSUNNY   92  74  56 E12       30.09S HX 101
MARATHON       MOSUNNY   92  78  63 SE7       30.07F HX 107
BOCA CHICA NAS CLOUDY    91  77  63 SE12      30.07F HX 104
KEY WEST INTL  PTSUNNY   90  78  68 SE10      30.08F HX 104

...INTERNATIONAL WEATHER...

CITY           SKY/WX    TMP DP  RH WIND       PRES   REMARKS
NASSAU BAHAMAS MOSUNNY   90  73  58 SE6         N/A  HX  98
CANCUN MEXICO  MOSUNNY   90  75  62 E9        30.03F HX 100
COZUMEL MEXICO PTSUNNY   88  77  70 NE17      30.02F HX 100

ADJACENT COASTAL WATERS...

STATION/POSITION TIME  SKY/WX   TEMP    WIND        PRES    WAVE
                                AIR SEA DIR/SP/G            HT/PER
                 (UTC)          (F)     (DEG/KT/KT) (MB)    (FT/S)
PULASKI SHOAL LI 1900            86     130/  7/  8 1018.4F
SAND KEY         1900            86     120/ 10/ 12 1018.3F
SOMBRERO KEY     1900            88     110/ 11/ 12 1019.0F
LONG KEY         1800            87 91  120/  9/ 11 1019.7F
MOLASSES REEF    1900            86 88  120/ 10/ 11 1018.8F
FOWEY ROCKS      1900            86 88  100/  7/  8 1019.3F
Buoy 42080       NOT AVBL

$$



USA.gov is the U.S. government's official web portal to all federal, state and local government web resources and services.